[[{"header":{"parameterUnit":"m.s-1","parameterCategory":1,"la1":30.2991,"la2":30.254,"lo1":-89.0895,"lo2":-89.0444,"dy":0.0017,"dx":0.0017,"nx":28,"ny":28,"refTime":"2026-02-06T03:00:00:Z","depth":0,"parameterNumber":2,"parameterNumberName":"U-component_of_WINDS"},"data":[0,0,0,0,0,0,0,0,0,0,0,0,0,0,0,0,0,0,0,0,0,0,0,0,0,0,0,0,0,0,0,0,0,0,0,0,0,0,0,0,0,0,0,0,0,0,0,0,0,0,0,0,0,0,0,0,0,0,2.7323,2.7324,0,2.7401,2.7402,2.7403,2.7342,2.734,2.7337,2.7334,2.7416,2.7421,2.7425,0,0,0,0,0,0,0,0,0,0,0,0,0,2.7125,2.7129,2.7323,2.7324,2.7325,2.7401,2.7402,2.7403,2.7343,2.7339,2.7336,2.7333,2.7415,2.742,2.7426,0,0,0,0,0,0,0,0,0,0,0,0,0,2.7208,2.7131,2.7323,2.7304,2.7303,2.7401,2.7402,2.7403,2.7343,2.7339,2.7335,2.7332,2.7413,2.742,2.7426,2.7548,0,0,2.7448,2.7451,0,0,0,0,0,0,0,0,2.7204,2.7215,2.7306,2.7306,2.7305,2.7358,2.7362,2.7452,2.7344,2.7328,2.7334,2.733,2.74,2.7408,2.7431,2.7551,2.7555,2.7448,2.7452,2.7455,2.7457,0,0,0,0,0,0,0,2.7198,2.7212,2.7354,2.7307,2.7307,2.7293,2.73,2.7379,2.7385,2.7329,2.7325,2.7335,2.7399,2.7425,2.7433,2.7556,2.7448,2.7454,2.7458,2.7461,2.7782,2.7786,0,0,0,0,0,0,2.7194,2.7207,2.7352,2.7356,2.7243,2.7299,2.7308,2.7345,2.7384,2.7386,2.7338,2.7332,2.7415,2.7425,2.7435,2.7581,2.7455,2.7462,2.7466,2.7778,2.7783,2.7788,0,0,0,0,0,0,2.719,2.7207,2.7348,2.7281,2.7298,2.7307,2.7349,2.7348,2.7374,2.7391,2.7392,2.7363,2.7412,2.7425,2.752,2.7583,2.7465,2.7471,2.7772,2.7779,2.7785,2.7873,0,0,0,0,0,0,2.7184,2.7206,2.7251,2.7282,2.7302,2.7432,2.7353,2.7353,2.7386,2.7378,2.7414,2.7417,2.741,2.751,2.7527,2.759,2.7477,2.7767,2.7775,2.7783,2.7865,2.7882,2.7896,0,0,0,0,0,2.7177,2.7273,2.7254,2.7272,2.7358,2.7435,2.7446,2.7436,2.7391,2.7437,2.7448,2.7416,2.7573,2.7521,2.7539,2.7605,2.7763,2.7773,2.7783,2.7857,2.7878,2.7896,0,0,0,0,0,0,2.7249,2.7276,2.7256,2.7364,2.7398,2.7425,2.7483,2.7458,2.7506,2.7497,2.7483,2.7492,2.7592,2.7608,2.7549,2.7726,2.7661,2.7675,2.7712,2.7732,2.7747,2.7742,2.7482,0,0,0,0,0,2.7278,2.7337,2.7358,2.7451,2.7469,2.7474,2.7507,2.7496,2.7531,2.7545,2.7563,2.7599,2.7656,2.7695,2.7749,2.7866,2.7875,2.7921,2.7937,2.795,2.7963,2.8028,2.805,2.782,2.782,2.782,0,0,2.7337,2.7359,2.7398,2.7467,2.7491,2.7555,2.7486,2.7555,2.7602,2.7555,2.7646,2.7661,2.77,2.7808,2.7856,2.7824,2.8028,2.7963,2.7973,2.7979,2.8041,2.8063,2.8082,2.7827,2.7825,2.7824,0,0,2.7478,2.75,2.7581,2.7608,2.7646,2.7648,2.7668,2.77,2.7708,2.7798,2.7765,2.7822,2.7921,2.7951,2.7979,2.8133,2.8105,2.8151,2.8234,2.8299,2.8317,2.8333,2.8389,2.841,2.8163,2.8163,2.8164,0,2.7547,2.764,2.7626,2.7698,2.773,2.7691,2.7774,2.78,2.7855,2.7879,2.7842,2.7967,2.7991,2.8105,2.8143,2.8167,2.819,2.8147,2.8315,2.8331,2.8346,2.84,2.8421,2.8169,2.8168,2.8168,2.8167,0,2.7724,2.7789,2.785,2.7904,2.7943,2.802,2.8019,2.8061,2.8047,2.8054,2.8148,2.8175,2.8234,2.8261,2.8248,2.8375,2.8354,2.8317,2.8251,2.8373,2.8424,2.8444,2.8177,2.8175,2.8173,2.8172,0,0,2.7912,2.7957,2.798,2.8005,2.8045,2.8096,2.8173,2.823,2.8267,2.8306,2.8371,2.8457,2.8423,2.8455,2.8446,2.8502,2.8625,2.8458,2.8458,2.8489,2.8768,2.8797,2.8821,2.8606,2.861,2.8613,2.8765,0,2.8055,2.8187,2.8178,2.8303,2.8365,2.8328,2.8395,2.8428,2.8437,2.8491,2.85,2.8562,2.8512,2.8531,2.8585,2.8598,2.8681,2.8587,2.8668,2.8671,2.866,2.8847,2.8877,2.902,2.8785,2.8788,2.8791,0,2.824,2.8287,2.8418,2.8451,2.8476,2.8536,2.8589,2.8641,2.8678,2.8681,2.8718,2.8699,2.8778,2.8711,2.882,2.8757,2.8789,2.8801,2.8806,2.8814,2.8739,2.8862,2.9065,2.9087,2.8821,2.8819,2.8817,0,2.8367,2.8461,2.8552,2.8574,2.8615,2.8658,2.8677,2.871,2.8746,2.8793,2.8817,2.8873,2.8904,2.8948,2.8946,2.8896,2.9057,2.8989,2.9063,2.9064,2.9099,2.9097,2.9312,2.9119,2.9118,2.9118,2.9117,0,2.8529,2.8611,2.861,2.8666,2.8758,2.8747,2.8838,2.8852,2.8883,2.8942,2.8914,2.8971,2.8964,2.9022,2.902,2.9113,2.9126,2.9132,2.9131,2.9135,2.9135,2.9157,2.9148,2.9123,2.9122,2.9121,2.912,0,2.8685,2.8687,2.8785,2.8815,2.8825,2.8891,2.8918,2.8972,2.8978,2.9054,2.9071,2.9082,2.9149,2.9151,2.9227,2.9226,2.9339,2.9326,2.9326,2.9324,2.9399,2.9392,2.9636,2.9669,2.9453,2.9455,2.9457,0,2.8789,2.8852,2.8889,2.8926,2.8948,2.9009,2.9046,2.9038,2.9077,2.9126,2.9175,2.9238,2.9289,2.9397,2.9413,2.9471,2.9461,2.9542,2.9469,2.9472,2.9464,2.9461,2.9468,2.9557,2.9559,2.9561,2.9563,0,2.8974,2.8972,2.9026,2.9081,2.9125,2.9168,2.9208,2.9241,2.9238,2.9284,2.9352,2.9391,2.9469,2.9534,2.9591,2.9612,2.9588,2.9585,2.9606,2.9612,2.961,2.9614,2.9367,2.958,2.9578,2.9577,2.9576,2.9575,2.9108,2.9163,2.9198,2.9259,2.9288,2.9326,2.9379,2.9393,2.9449,2.9511,2.9503,2.9579,2.9617,2.9691,2.9717,2.9777,2.9749,2.9778,2.9786,2.9794,2.9803,2.96,2.9787,2.9787,2.9786,2.9786,2.9786,0,2.9293,2.9314,2.937,2.9427,2.9476,2.9448,2.9491,2.9534,2.9601,2.9637,2.9688,2.9767,2.983,2.985,2.9912,2.9956,2.9947,2.9973,2.997,2.9975,2.9823,2.98,2.9979,2.9979,2.9979,2.9979,2.9979,2.9979,2.9395,2.9486,2.9489,2.9596,2.9616,2.969,2.9717,2.9753,2.9782,2.9871,2.9923,2.9935,2.9967,3.003,3.0087,3.0092,3.0116,3.0147,3.0148,3.0005,2.9986,2.9967,2.9946,3.0152,3.0152,3.0295,3.0296,3.0297]},{"header":{"parameterUnit":"m.s-1","parameterCategory":1,"la1":30.2991,"la2":30.254,"lo1":-89.0895,"lo2":-89.0444,"dy":0.0017,"dx":0.0017,"nx":28,"ny":28,"refTime":"2026-02-06T03:00:00:Z","depth":0,"parameterNumber":3,"parameterNumberName":"V-component_of_WINDS"},"data":[0,0,0,0,0,0,0,0,0,0,0,0,0,0,0,0,0,0,0,0,0,0,0,0,0,0,0,0,0,0,0,0,0,0,0,0,0,0,0,0,0,0,0,0,0,0,0,0,0,0,0,0,0,0,0,0,0,0,-3.0323,-3.0325,0,-3.0507,-3.0509,-3.0511,-3.0503,-3.05,-3.0497,-3.0495,-3.0683,-3.069,-3.0698,0,0,0,0,0,0,0,0,0,0,0,0,0,-2.9968,-2.9975,-3.0323,-3.0326,-3.0328,-3.0506,-3.0509,-3.0511,-3.0503,-3.05,-3.0497,-3.0494,-3.0681,-3.0689,-3.0698,0,0,0,0,0,0,0,0,0,0,0,0,0,-3.0134,-2.9977,-3.0323,-3.0345,-3.0349,-3.0506,-3.0509,-3.0512,-3.0504,-3.05,-3.0496,-3.0492,-3.0678,-3.0688,-3.0699,-3.0846,0,0,-3.0733,-3.0738,0,0,0,0,0,0,0,0,-3.0124,-3.0147,-3.034,-3.0344,-3.0349,-3.0478,-3.0452,-3.0624,-3.0505,-3.0445,-3.0495,-3.049,-3.0618,-3.0634,-3.0677,-3.0855,-3.0863,-3.0734,-3.0741,-3.0746,-3.0749,0,0,0,0,0,0,0,-3.0113,-3.0139,-3.0396,-3.0343,-3.0348,-3.0347,-3.0366,-3.0485,-3.0551,-3.045,-3.045,-3.0472,-3.062,-3.0666,-3.0681,-3.0866,-3.0734,-3.0744,-3.0751,-3.0755,-3.1175,-3.118,0,0,0,0,0,0,-3.0096,-3.0129,-3.039,-3.0401,-3.0225,-3.0356,-3.0378,-3.044,-3.055,-3.0563,-3.0475,-3.0471,-3.0649,-3.0668,-3.0688,-3.0868,-3.0746,-3.0756,-3.0763,-3.1171,-3.1176,-3.1181,0,0,0,0,0,0,-3.0089,-3.012,-3.0383,-3.0266,-3.0299,-3.0367,-3.0437,-3.0446,-3.0492,-3.0568,-3.058,-3.051,-3.0646,-3.0672,-3.0807,-3.0874,-3.0761,-3.0771,-3.1166,-3.1173,-3.1179,-3.1228,0,0,0,0,0,0,-3.0079,-3.0117,-3.0173,-3.0267,-3.0305,-3.0499,-3.0441,-3.0452,-3.0511,-3.0508,-3.0605,-3.0617,-3.0645,-3.0791,-3.0818,-3.0887,-3.078,-3.116,-3.1169,-3.1177,-3.1221,-3.1236,-3.1249,0,0,0,0,0,-3.0066,-3.0179,-3.0176,-3.0207,-3.0376,-3.0503,-3.0525,-3.0555,-3.0517,-3.0574,-3.0623,-3.0614,-3.0862,-3.0804,-3.0835,-3.0909,-3.1156,-3.1166,-3.1176,-3.1215,-3.1233,-3.1248,0,0,0,0,0,0,-3.0091,-3.0192,-3.0189,-3.0336,-3.0411,-3.0501,-3.0574,-3.0573,-3.066,-3.0653,-3.0687,-3.0709,-3.0845,-3.0891,-3.0824,-3.1058,-3.1004,-3.1021,-3.1023,-3.1041,-3.1055,-3.1041,-3.0789,0,0,0,0,0,-3.0114,-3.0208,-3.0291,-3.0412,-3.045,-3.0506,-3.0562,-3.0579,-3.0658,-3.0689,-3.0748,-3.0826,-3.0921,-3.0983,-3.1075,-3.1227,-3.1249,-3.1293,-3.1307,-3.1318,-3.1333,-3.1418,-3.1439,-3.1214,-3.1214,-3.1214,0,0,-3.0162,-3.0228,-3.0285,-3.0419,-3.0479,-3.0576,-3.0532,-3.0636,-3.0709,-3.0705,-3.0837,-3.0883,-3.0972,-3.1116,-3.1183,-3.1158,-3.14,-3.1331,-3.1339,-3.1348,-3.1431,-3.1452,-3.1471,-3.1221,-3.122,-3.1219,0,0,-3.0299,-3.0358,-3.0467,-3.0528,-3.062,-3.0656,-3.0682,-3.0773,-3.0804,-3.0937,-3.0936,-3.1023,-3.1187,-3.125,-3.1304,-3.1467,-3.1462,-3.1496,-3.1569,-3.1652,-3.1669,-3.1685,-3.1745,-3.1766,-3.151,-3.151,-3.151,0,-3.0347,-3.0493,-3.0523,-3.0628,-3.0688,-3.0689,-3.08,-3.0858,-3.0975,-3.1017,-3.0987,-3.1194,-3.1253,-3.1414,-3.1454,-3.1497,-3.1529,-3.1485,-3.1664,-3.1681,-3.1696,-3.1753,-3.1775,-3.1514,-3.1513,-3.1513,-3.1513,0,-3.0548,-3.0649,-3.0726,-3.084,-3.0908,-3.1015,-3.1063,-3.1128,-3.114,-3.118,-3.1316,-3.1387,-3.1495,-3.1534,-3.1546,-3.1697,-3.1679,-3.1657,-3.1604,-3.172,-3.1775,-3.1797,-3.1519,-3.1518,-3.1517,-3.1516,0,0,-3.0706,-3.0835,-3.0863,-3.0915,-3.1017,-3.1097,-3.1205,-3.131,-3.1366,-3.1447,-3.154,-3.1679,-3.166,-3.1721,-3.174,-3.1813,-3.1939,-3.1782,-3.1784,-3.181,-3.2112,-3.2129,-3.2154,-3.1936,-3.1941,-3.1944,-3.2105,0,-3.0854,-3.1046,-3.1077,-3.1246,-3.1341,-3.1344,-3.1439,-3.1512,-3.1553,-3.1639,-3.1684,-3.1783,-3.1749,-3.1786,-3.1858,-3.1908,-3.2,-3.1897,-3.2024,-3.2028,-3.2002,-3.2182,-3.22,-3.2348,-3.2126,-3.213,-3.2132,0,-3.1053,-3.114,-3.1318,-3.1409,-3.145,-3.1534,-3.1634,-3.1717,-3.18,-3.1825,-3.1894,-3.1905,-3.2019,-3.1961,-3.2118,-3.2047,-3.2101,-3.2134,-3.214,-3.2154,-3.2088,-3.2201,-3.2396,-3.2419,-3.2166,-3.2163,-3.2161,0,-3.1151,-3.1313,-3.1441,-3.1486,-3.1594,-3.1654,-3.1702,-3.1781,-3.1843,-3.1931,-3.1972,-3.2071,-3.2126,-3.2203,-3.2241,-3.2195,-3.2397,-3.2341,-3.2422,-3.2421,-3.2464,-3.2461,-3.2671,-3.2497,-3.2497,-3.2496,-3.2496,0,-3.1314,-3.1424,-3.1487,-3.1566,-3.1689,-3.1724,-3.1845,-3.1892,-3.1963,-3.2052,-3.2061,-3.2144,-3.2189,-3.2279,-3.231,-3.2437,-3.2461,-3.2485,-3.2492,-3.2485,-3.2482,-3.2521,-3.2512,-3.2502,-3.2501,-3.25,-3.2499,0,-3.1446,-3.1492,-3.1632,-3.1724,-3.175,-3.1837,-3.1915,-3.1993,-3.2033,-3.2146,-3.2174,-3.2238,-3.2345,-3.239,-3.2521,-3.2542,-3.2688,-3.2687,-3.266,-3.2662,-3.274,-3.2733,-3.2984,-3.3019,-3.282,-3.2822,-3.2824,0,-3.1547,-3.1631,-3.1732,-3.1793,-3.1843,-3.1939,-3.2003,-3.2041,-3.2107,-3.2209,-3.2275,-3.2382,-3.2469,-3.264,-3.2699,-3.2799,-3.2801,-3.2882,-3.2817,-3.2807,-3.2804,-3.2799,-3.2809,-3.2895,-3.2897,-3.2898,-3.2899,0,-3.1722,-3.1742,-3.1833,-3.1933,-3.2009,-3.2089,-3.2168,-3.2217,-3.2267,-3.2341,-3.2451,-3.2519,-3.2653,-3.276,-3.2865,-3.2915,-3.2917,-3.292,-3.2944,-3.2938,-3.292,-3.2932,-3.2694,-3.2914,-3.2912,-3.2911,-3.2911,-3.291,-3.1843,-3.1919,-3.2002,-3.2104,-3.2167,-3.2241,-3.2319,-3.2369,-3.2461,-3.2574,-3.2591,-3.2709,-3.2792,-3.2933,-3.2987,-3.308,-3.306,-3.3094,-3.3103,-3.3112,-3.3117,-3.2904,-3.3099,-3.3099,-3.3098,-3.3098,-3.3098,0,-3.202,-3.2074,-3.2167,-3.2278,-3.2358,-3.2352,-3.244,-3.2508,-3.2611,-3.2688,-3.2775,-3.2902,-3.3006,-3.3073,-3.3178,-3.324,-3.3243,-3.3266,-3.3263,-3.3275,-3.3129,-3.3098,-3.3262,-3.3262,-3.3262,-3.3262,-3.3262,-3.3262,-3.2122,-3.225,-3.228,-3.2441,-3.2494,-3.2609,-3.266,-3.2729,-3.2791,-3.2932,-3.3019,-3.3062,-3.3136,-3.3247,-3.3342,-3.3359,-3.3398,-3.3423,-3.3439,-3.3301,-3.3284,-3.3268,-3.324,-3.3431,-3.3431,-3.3577,-3.3579,-3.358]}]]